owner,sensor,date,latitude,longitude,vertical_datum,sea_water_practical_salinity,qcFlag 
ENP,ioos.station.NOAA.NDBC:LMRF1:1,2019-11-01T00:00:00Z,25.5560,-81.1690,1.5,23.04,11111222 
ENP,ioos.station.NOAA.NDBC:LMRF1:1,2019-11-01T01:00:00Z,25.5560,-81.1690,1.5,20.41,11111222 
ENP,ioos.station.NOAA.NDBC:LMRF1:1,2019-11-01T02:00:00Z,25.5560,-81.1690,1.5,19.04,11111222 
ENP,ioos.station.NOAA.NDBC:LMRF1:1,2019-11-01T04:00:00Z,25.5560,-81.1690,1.5,18.56,11111222 
ENP,ioos.station.NOAA.NDBC:LMRF1:1,2019-11-01T05:00:00Z,25.5560,-81.1690,1.5,18.22,11111222 
ENP,ioos.station.NOAA.NDBC:LMRF1:1,2019-11-01T06:00:00Z,25.5560,-81.1690,1.5,18.29,11111222 
ENP,ioos.station.NOAA.NDBC:LMRF1:1,2019-11-01T07:00:00Z,25.5560,-81.1690,1.5,19.45,11111222 
ENP,ioos.station.NOAA.NDBC:LMRF1:1,2019-11-01T08:00:00Z,25.5560,-81.1690,1.5,21.58,11111222 
ENP,ioos.station.NOAA.NDBC:LMRF1:1,2019-11-01T09:00:00Z,25.5560,-81.1690,1.5,23.67,11111222 
ENP,ioos.station.NOAA.NDBC:LMRF1:1,2019-11-01T10:00:00Z,25.5560,-81.1690,1.5,24.23,11111222 
ENP,ioos.station.NOAA.NDBC:LMRF1:1,2019-11-01T11:00:00Z,25.5560,-81.1690,1.5,24.3,11111222 
ENP,ioos.station.NOAA.NDBC:LMRF1:1,2019-11-01T12:00:00Z,25.5560,-81.1690,1.5,22.62,11111222 
ENP,ioos.station.NOAA.NDBC:LMRF1:1,2019-11-01T13:00:00Z,25.5560,-81.1690,1.5,21.03,11111222 
ENP,ioos.station.NOAA.NDBC:LMRF1:1,2019-11-01T15:00:00Z,25.5560,-81.1690,1.5,19.86,11111222 
ENP,ioos.station.NOAA.NDBC:LMRF1:1,2019-11-01T17:00:00Z,25.5560,-81.1690,1.5,17.81,11111222 
ENP,ioos.station.NOAA.NDBC:LMRF1:1,2019-11-01T18:00:00Z,25.5560,-81.1690,1.5,17.34,11111222 
ENP,ioos.station.NOAA.NDBC:LMRF1:1,2019-11-01T19:00:00Z,25.5560,-81.1690,1.5,17.07,11111222 
ENP,ioos.station.NOAA.NDBC:LMRF1:1,2019-11-01T20:00:00Z,25.5560,-81.1690,1.5,16.67,11111222 
ENP,ioos.station.NOAA.NDBC:LMRF1:1,2019-11-01T21:00:00Z,25.5560,-81.1690,1.5,17.48,11111222 
ENP,ioos.station.NOAA.NDBC:LMRF1:1,2019-11-01T23:00:00Z,25.5560,-81.1690,1.5,20.13,11111222 
ENP,ioos.station.NOAA.NDBC:LMRF1:1,2019-11-02T00:00:00Z,25.5560,-81.1690,1.5,20.89,11111222 
ENP,ioos.station.NOAA.NDBC:LMRF1:1,2019-11-02T02:00:00Z,25.5560,-81.1690,1.5,18.63,11111222 
ENP,ioos.station.NOAA.NDBC:LMRF1:1,2019-11-02T04:00:00Z,25.5560,-81.1690,1.5,17.68,11111222 
ENP,ioos.station.NOAA.NDBC:LMRF1:1,2019-11-02T06:00:00Z,25.5560,-81.1690,1.5,16.8,11111222 
ENP,ioos.station.NOAA.NDBC:LMRF1:1,2019-11-02T07:00:00Z,25.5560,-81.1690,1.5,16.73,11111222 
ENP,ioos.station.NOAA.NDBC:LMRF1:1,2019-11-02T08:00:00Z,25.5560,-81.1690,1.5,17.68,11111222 
ENP,ioos.station.NOAA.NDBC:LMRF1:1,2019-11-02T09:00:00Z,25.5560,-81.1690,1.5,18.42,11111222 
ENP,ioos.station.NOAA.NDBC:LMRF1:1,2019-11-02T10:00:00Z,25.5560,-81.1690,1.5,20.34,11111222 
ENP,ioos.station.NOAA.NDBC:LMRF1:1,2019-11-02T11:00:00Z,25.5560,-81.1690,1.5,22.06,11111222 
ENP,ioos.station.NOAA.NDBC:LMRF1:1,2019-11-02T13:00:00Z,25.5560,-81.1690,1.5,18.63,11111222 
ENP,ioos.station.NOAA.NDBC:LMRF1:1,2019-11-02T14:00:00Z,25.5560,-81.1690,1.5,18.15,11111222 
ENP,ioos.station.NOAA.NDBC:LMRF1:1,2019-11-02T15:00:00Z,25.5560,-81.1690,1.5,17.54,11111222 
ENP,ioos.station.NOAA.NDBC:LMRF1:1,2019-11-02T16:00:00Z,25.5560,-81.1690,1.5,17.0,11111222 
ENP,ioos.station.NOAA.NDBC:LMRF1:1,2019-11-02T17:00:00Z,25.5560,-81.1690,1.5,16.33,11111222 
ENP,ioos.station.NOAA.NDBC:LMRF1:1,2019-11-02T18:00:00Z,25.5560,-81.1690,1.5,15.8,11111222 
ENP,ioos.station.NOAA.NDBC:LMRF1:1,2019-11-02T19:00:00Z,25.5560,-81.1690,1.5,15.46,11111222 
ENP,ioos.station.NOAA.NDBC:LMRF1:1,2019-11-02T20:00:00Z,25.5560,-81.1690,1.5,15.2,11111222 
ENP,ioos.station.NOAA.NDBC:LMRF1:1,2019-11-02T21:00:00Z,25.5560,-81.1690,1.5,14.86,11111222 
ENP,ioos.station.NOAA.NDBC:LMRF1:1,2019-11-02T22:00:00Z,25.5560,-81.1690,1.5,15.2,11111222 
ENP,ioos.station.NOAA.NDBC:LMRF1:1,2019-11-02T23:00:00Z,25.5560,-81.1690,1.5,16.13,11111222 
ENP,ioos.station.NOAA.NDBC:LMRF1:1,2019-11-03T00:00:00Z,25.5560,-81.1690,1.5,16.87,11111222 
ENP,ioos.station.NOAA.NDBC:LMRF1:1,2019-11-03T01:00:00Z,25.5560,-81.1690,1.5,17.41,11111222 
ENP,ioos.station.NOAA.NDBC:LMRF1:1,2019-11-03T03:00:00Z,25.5560,-81.1690,1.5,17.54,11111222 
ENP,ioos.station.NOAA.NDBC:LMRF1:1,2019-11-03T05:00:00Z,25.5560,-81.1690,1.5,15.93,11111222 
ENP,ioos.station.NOAA.NDBC:LMRF1:1,2019-11-03T06:00:00Z,25.5560,-81.1690,1.5,15.6,11111222 
ENP,ioos.station.NOAA.NDBC:LMRF1:1,2019-11-03T07:00:00Z,25.5560,-81.1690,1.5,15.0,11111222 
ENP,ioos.station.NOAA.NDBC:LMRF1:1,2019-11-03T08:00:00Z,25.5560,-81.1690,1.5,14.86,11111222 
ENP,ioos.station.NOAA.NDBC:LMRF1:1,2019-11-03T09:00:00Z,25.5560,-81.1690,1.5,15.13,11111222 
ENP,ioos.station.NOAA.NDBC:LMRF1:1,2019-11-03T10:00:00Z,25.5560,-81.1690,1.5,16.47,11111222 
ENP,ioos.station.NOAA.NDBC:LMRF1:1,2019-11-03T11:00:00Z,25.5560,-81.1690,1.5,17.61,11111222 
ENP,ioos.station.NOAA.NDBC:LMRF1:1,2019-11-03T12:00:00Z,25.5560,-81.1690,1.5,18.22,11111222 
ENP,ioos.station.NOAA.NDBC:LMRF1:1,2019-11-03T13:00:00Z,25.5560,-81.1690,1.5,17.0,11111222 
ENP,ioos.station.NOAA.NDBC:LMRF1:1,2019-11-03T14:00:00Z,25.5560,-81.1690,1.5,16.0,11111222 
ENP,ioos.station.NOAA.NDBC:LMRF1:1,2019-11-03T15:00:00Z,25.5560,-81.1690,1.5,15.93,11111222 
ENP,ioos.station.NOAA.NDBC:LMRF1:1,2019-11-03T16:00:00Z,25.5560,-81.1690,1.5,15.13,11111222 
ENP,ioos.station.NOAA.NDBC:LMRF1:1,2019-11-03T17:00:00Z,25.5560,-81.1690,1.5,14.93,11111222 
ENP,ioos.station.NOAA.NDBC:LMRF1:1,2019-11-03T18:00:00Z,25.5560,-81.1690,1.5,14.53,11111222 
ENP,ioos.station.NOAA.NDBC:LMRF1:1,2019-11-03T19:00:00Z,25.5560,-81.1690,1.5,14.07,11111222 
ENP,ioos.station.NOAA.NDBC:LMRF1:1,2019-11-03T20:00:00Z,25.5560,-81.1690,1.5,13.87,11111222 
ENP,ioos.station.NOAA.NDBC:LMRF1:1,2019-11-03T21:00:00Z,25.5560,-81.1690,1.5,13.61,11111222 
ENP,ioos.station.NOAA.NDBC:LMRF1:1,2019-11-03T22:00:00Z,25.5560,-81.1690,1.5,13.47,11111222 
ENP,ioos.station.NOAA.NDBC:LMRF1:1,2019-11-03T23:00:00Z,25.5560,-81.1690,1.5,13.28,11111222 
ENP,ioos.station.NOAA.NDBC:LMRF1:1,2019-11-04T00:00:00Z,25.5560,-81.1690,1.5,13.28,11111222 
ENP,ioos.station.NOAA.NDBC:LMRF1:1,2019-11-04T02:00:00Z,25.5560,-81.1690,1.5,13.67,11111222 
ENP,ioos.station.NOAA.NDBC:LMRF1:1,2019-11-04T03:00:00Z,25.5560,-81.1690,1.5,13.47,11111222 
ENP,ioos.station.NOAA.NDBC:LMRF1:1,2019-11-04T05:00:00Z,25.5560,-81.1690,1.5,13.21,11111222 
ENP,ioos.station.NOAA.NDBC:LMRF1:1,2019-11-04T16:00:00Z,25.5560,-81.1690,1.5,14.4,11111222 
ENP,ioos.station.NOAA.NDBC:LMRF1:1,2019-11-04T17:00:00Z,25.5560,-81.1690,1.5,13.74,11111222 
ENP,ioos.station.NOAA.NDBC:LMRF1:1,2019-11-04T18:00:00Z,25.5560,-81.1690,1.5,13.34,11111222 
ENP,ioos.station.NOAA.NDBC:LMRF1:1,2019-11-04T19:00:00Z,25.5560,-81.1690,1.5,12.88,11111222 
ENP,ioos.station.NOAA.NDBC:LMRF1:1,2019-11-04T20:00:00Z,25.5560,-81.1690,1.5,12.75,11111222 
ENP,ioos.station.NOAA.NDBC:LMRF1:1,2019-11-04T21:00:00Z,25.5560,-81.1690,1.5,12.56,11111222 
ENP,ioos.station.NOAA.NDBC:LMRF1:1,2019-11-04T22:00:00Z,25.5560,-81.1690,1.5,12.56,11111222 
ENP,ioos.station.NOAA.NDBC:LMRF1:1,2019-11-04T23:00:00Z,25.5560,-81.1690,1.5,12.49,11111222 
ENP,ioos.station.NOAA.NDBC:LMRF1:1,2019-11-05T00:00:00Z,25.5560,-81.1690,1.5,12.88,11111222 
ENP,ioos.station.NOAA.NDBC:LMRF1:1,2019-11-05T01:00:00Z,25.5560,-81.1690,1.5,14.13,11111222 
ENP,ioos.station.NOAA.NDBC:LMRF1:1,2019-11-05T03:00:00Z,25.5560,-81.1690,1.5,18.9,11111222 
ENP,ioos.station.NOAA.NDBC:LMRF1:1,2019-11-05T05:00:00Z,25.5560,-81.1690,1.5,17.34,11111222 
ENP,ioos.station.NOAA.NDBC:LMRF1:1,2019-11-05T07:00:00Z,25.5560,-81.1690,1.5,14.4,11111222 
ENP,ioos.station.NOAA.NDBC:LMRF1:1,2019-11-05T08:00:00Z,25.5560,-81.1690,1.5,13.8,11111222 
ENP,ioos.station.NOAA.NDBC:LMRF1:1,2019-11-05T09:00:00Z,25.5560,-81.1690,1.5,13.8,11111222 
ENP,ioos.station.NOAA.NDBC:LMRF1:1,2019-11-05T10:00:00Z,25.5560,-81.1690,1.5,13.67,11111222 
ENP,ioos.station.NOAA.NDBC:LMRF1:1,2019-11-05T11:00:00Z,25.5560,-81.1690,1.5,13.8,11111222 
ENP,ioos.station.NOAA.NDBC:LMRF1:1,2019-11-05T12:00:00Z,25.5560,-81.1690,1.5,18.36,11111222 
ENP,ioos.station.NOAA.NDBC:LMRF1:1,2019-11-05T13:00:00Z,25.5560,-81.1690,1.5,18.97,11111222 
ENP,ioos.station.NOAA.NDBC:LMRF1:1,2019-11-05T14:00:00Z,25.5560,-81.1690,1.5,21.1,11111222 
ENP,ioos.station.NOAA.NDBC:LMRF1:1,2019-11-05T15:00:00Z,25.5560,-81.1690,1.5,23.18,11111222 
ENP,ioos.station.NOAA.NDBC:LMRF1:1,2019-11-05T16:00:00Z,25.5560,-81.1690,1.5,23.18,11111222 
ENP,ioos.station.NOAA.NDBC:LMRF1:1,2019-11-05T17:00:00Z,25.5560,-81.1690,1.5,19.58,11111222 
ENP,ioos.station.NOAA.NDBC:LMRF1:1,2019-11-05T18:00:00Z,25.5560,-81.1690,1.5,16.13,11111222 
ENP,ioos.station.NOAA.NDBC:LMRF1:1,2019-11-05T19:00:00Z,25.5560,-81.1690,1.5,15.8,11111222 
ENP,ioos.station.NOAA.NDBC:LMRF1:1,2019-11-05T20:00:00Z,25.5560,-81.1690,1.5,15.26,11111222 
ENP,ioos.station.NOAA.NDBC:LMRF1:1,2019-11-05T21:00:00Z,25.5560,-81.1690,1.5,14.46,11111222 
ENP,ioos.station.NOAA.NDBC:LMRF1:1,2019-11-05T22:00:00Z,25.5560,-81.1690,1.5,13.87,11111222 
ENP,ioos.station.NOAA.NDBC:LMRF1:1,2019-11-05T23:00:00Z,25.5560,-81.1690,1.5,13.74,11111222 
ENP,ioos.station.NOAA.NDBC:LMRF1:1,2019-11-06T00:00:00Z,25.5560,-81.1690,1.5,14.13,11111222 
ENP,ioos.station.NOAA.NDBC:LMRF1:1,2019-11-06T01:00:00Z,25.5560,-81.1690,1.5,15.2,11111222 
ENP,ioos.station.NOAA.NDBC:LMRF1:1,2019-11-06T02:00:00Z,25.5560,-81.1690,1.5,17.14,11111222 
ENP,ioos.station.NOAA.NDBC:LMRF1:1,2019-11-06T03:00:00Z,25.5560,-81.1690,1.5,20.54,11111222 
ENP,ioos.station.NOAA.NDBC:LMRF1:1,2019-11-06T05:00:00Z,25.5560,-81.1690,1.5,23.46,11111222 
ENP,ioos.station.NOAA.NDBC:LMRF1:1,2019-11-06T07:00:00Z,25.5560,-81.1690,1.5,17.88,11111222 
ENP,ioos.station.NOAA.NDBC:LMRF1:1,2019-11-06T08:00:00Z,25.5560,-81.1690,1.5,16.0,11111222 
ENP,ioos.station.NOAA.NDBC:LMRF1:1,2019-11-06T09:00:00Z,25.5560,-81.1690,1.5,15.4,11111222 
ENP,ioos.station.NOAA.NDBC:LMRF1:1,2019-11-06T10:00:00Z,25.5560,-81.1690,1.5,15.0,11111222 
ENP,ioos.station.NOAA.NDBC:LMRF1:1,2019-11-06T11:00:00Z,25.5560,-81.1690,1.5,14.53,11111222 
ENP,ioos.station.NOAA.NDBC:LMRF1:1,2019-11-06T12:00:00Z,25.5560,-81.1690,1.5,14.46,11111222 
ENP,ioos.station.NOAA.NDBC:LMRF1:1,2019-11-06T13:00:00Z,25.5560,-81.1690,1.5,14.86,11111222 
ENP,ioos.station.NOAA.NDBC:LMRF1:1,2019-11-06T14:00:00Z,25.5560,-81.1690,1.5,15.73,11111222 
ENP,ioos.station.NOAA.NDBC:LMRF1:1,2019-11-06T15:00:00Z,25.5560,-81.1690,1.5,17.68,11111222 
ENP,ioos.station.NOAA.NDBC:LMRF1:1,2019-11-06T16:00:00Z,25.5560,-81.1690,1.5,18.7,11111222 
ENP,ioos.station.NOAA.NDBC:LMRF1:1,2019-11-06T17:00:00Z,25.5560,-81.1690,1.5,18.02,11111222 
ENP,ioos.station.NOAA.NDBC:LMRF1:1,2019-11-06T19:00:00Z,25.5560,-81.1690,1.5,15.46,11111222 
ENP,ioos.station.NOAA.NDBC:LMRF1:1,2019-11-06T20:00:00Z,25.5560,-81.1690,1.5,14.6,11111222 
ENP,ioos.station.NOAA.NDBC:LMRF1:1,2019-11-06T21:00:00Z,25.5560,-81.1690,1.5,13.8,11111222 
ENP,ioos.station.NOAA.NDBC:LMRF1:1,2019-11-06T22:00:00Z,25.5560,-81.1690,1.5,13.54,11111222 
ENP,ioos.station.NOAA.NDBC:LMRF1:1,2019-11-06T23:00:00Z,25.5560,-81.1690,1.5,13.08,11111222 
ENP,ioos.station.NOAA.NDBC:LMRF1:1,2019-11-07T00:00:00Z,25.5560,-81.1690,1.5,12.82,11111222 
ENP,ioos.station.NOAA.NDBC:LMRF1:1,2019-11-07T01:00:00Z,25.5560,-81.1690,1.5,12.36,11111222 
ENP,ioos.station.NOAA.NDBC:LMRF1:1,2019-11-07T02:00:00Z,25.5560,-81.1690,1.5,12.75,11111222 
ENP,ioos.station.NOAA.NDBC:LMRF1:1,2019-11-07T03:00:00Z,25.5560,-81.1690,1.5,13.67,11111222 
ENP,ioos.station.NOAA.NDBC:LMRF1:1,2019-11-07T05:00:00Z,25.5560,-81.1690,1.5,17.0,11111222 
ENP,ioos.station.NOAA.NDBC:LMRF1:1,2019-11-07T06:00:00Z,25.5560,-81.1690,1.5,17.48,11111222 
ENP,ioos.station.NOAA.NDBC:LMRF1:1,2019-11-07T07:00:00Z,25.5560,-81.1690,1.5,14.4,11111222 
ENP,ioos.station.NOAA.NDBC:LMRF1:1,2019-11-07T08:00:00Z,25.5560,-81.1690,1.5,13.94,11111222 
ENP,ioos.station.NOAA.NDBC:LMRF1:1,2019-11-07T09:00:00Z,25.5560,-81.1690,1.5,13.41,11111222 
ENP,ioos.station.NOAA.NDBC:LMRF1:1,2019-11-07T10:00:00Z,25.5560,-81.1690,1.5,12.82,11111222 
ENP,ioos.station.NOAA.NDBC:LMRF1:1,2019-11-07T11:00:00Z,25.5560,-81.1690,1.5,12.69,11111222 
ENP,ioos.station.NOAA.NDBC:LMRF1:1,2019-11-07T12:00:00Z,25.5560,-81.1690,1.5,12.49,11111222 
ENP,ioos.station.NOAA.NDBC:LMRF1:1,2019-11-07T13:00:00Z,25.5560,-81.1690,1.5,12.3,11111222 
ENP,ioos.station.NOAA.NDBC:LMRF1:1,2019-11-07T14:00:00Z,25.5560,-81.1690,1.5,12.56,11111222 
ENP,ioos.station.NOAA.NDBC:LMRF1:1,2019-11-07T15:00:00Z,25.5560,-81.1690,1.5,13.47,11111222 
ENP,ioos.station.NOAA.NDBC:LMRF1:1,2019-11-07T16:00:00Z,25.5560,-81.1690,1.5,17.14,11111222 
ENP,ioos.station.NOAA.NDBC:LMRF1:1,2019-11-07T17:00:00Z,25.5560,-81.1690,1.5,19.58,11111222 
ENP,ioos.station.NOAA.NDBC:LMRF1:1,2019-11-07T19:00:00Z,25.5560,-81.1690,1.5,15.4,11111222 
ENP,ioos.station.NOAA.NDBC:LMRF1:1,2019-11-07T20:00:00Z,25.5560,-81.1690,1.5,14.27,11111222 
ENP,ioos.station.NOAA.NDBC:LMRF1:1,2019-11-07T21:00:00Z,25.5560,-81.1690,1.5,13.28,11111222 
ENP,ioos.station.NOAA.NDBC:LMRF1:1,2019-11-07T22:00:00Z,25.5560,-81.1690,1.5,12.75,11111222 
ENP,ioos.station.NOAA.NDBC:LMRF1:1,2019-11-07T23:00:00Z,25.5560,-81.1690,1.5,12.49,11111222 
ENP,ioos.station.NOAA.NDBC:LMRF1:1,2019-11-08T00:00:00Z,25.5560,-81.1690,1.5,12.17,11111222 
ENP,ioos.station.NOAA.NDBC:LMRF1:1,2019-11-08T01:00:00Z,25.5560,-81.1690,1.5,11.91,11111222 
ENP,ioos.station.NOAA.NDBC:LMRF1:1,2019-11-08T03:00:00Z,25.5560,-81.1690,1.5,13.47,11111222 
ENP,ioos.station.NOAA.NDBC:LMRF1:1,2019-11-08T05:00:00Z,25.5560,-81.1690,1.5,21.23,11111222 
ENP,ioos.station.NOAA.NDBC:LMRF1:1,2019-11-08T07:00:00Z,25.5560,-81.1690,1.5,22.13,11111222 
ENP,ioos.station.NOAA.NDBC:LMRF1:1,2019-11-08T08:00:00Z,25.5560,-81.1690,1.5,18.15,11111222 
ENP,ioos.station.NOAA.NDBC:LMRF1:1,2019-11-08T09:00:00Z,25.5560,-81.1690,1.5,14.46,11111222 
ENP,ioos.station.NOAA.NDBC:LMRF1:1,2019-11-08T10:00:00Z,25.5560,-81.1690,1.5,14.66,11111222 
ENP,ioos.station.NOAA.NDBC:LMRF1:1,2019-11-08T11:00:00Z,25.5560,-81.1690,1.5,14.13,11111222 
ENP,ioos.station.NOAA.NDBC:LMRF1:1,2019-11-08T12:00:00Z,25.5560,-81.1690,1.5,13.61,11111222 
ENP,ioos.station.NOAA.NDBC:LMRF1:1,2019-11-08T14:00:00Z,25.5560,-81.1690,1.5,14.27,11111222 
ENP,ioos.station.NOAA.NDBC:LMRF1:1,2019-11-08T15:00:00Z,25.5560,-81.1690,1.5,15.53,11111222 
ENP,ioos.station.NOAA.NDBC:LMRF1:1,2019-11-08T17:00:00Z,25.5560,-81.1690,1.5,24.23,11111222 
ENP,ioos.station.NOAA.NDBC:LMRF1:1,2019-11-08T18:00:00Z,25.5560,-81.1690,1.5,25.28,11111222 
ENP,ioos.station.NOAA.NDBC:LMRF1:1,2019-11-08T19:00:00Z,25.5560,-81.1690,1.5,25.56,11111222 
ENP,ioos.station.NOAA.NDBC:LMRF1:1,2019-11-08T20:00:00Z,25.5560,-81.1690,1.5,23.88,11111222 
ENP,ioos.station.NOAA.NDBC:LMRF1:1,2019-11-08T21:00:00Z,25.5560,-81.1690,1.5,19.86,11111222 
ENP,ioos.station.NOAA.NDBC:LMRF1:1,2019-11-08T22:00:00Z,25.5560,-81.1690,1.5,17.54,11111222 
ENP,ioos.station.NOAA.NDBC:LMRF1:1,2019-11-08T23:00:00Z,25.5560,-81.1690,1.5,17.95,11111222 
ENP,ioos.station.NOAA.NDBC:LMRF1:1,2019-11-09T00:00:00Z,25.5560,-81.1690,1.5,16.8,11111222 
ENP,ioos.station.NOAA.NDBC:LMRF1:1,2019-11-09T01:00:00Z,25.5560,-81.1690,1.5,16.47,11111222 
ENP,ioos.station.NOAA.NDBC:LMRF1:1,2019-11-09T02:00:00Z,25.5560,-81.1690,1.5,18.02,11111222 
ENP,ioos.station.NOAA.NDBC:LMRF1:1,2019-11-09T03:00:00Z,25.5560,-81.1690,1.5,19.38,11111222 
ENP,ioos.station.NOAA.NDBC:LMRF1:1,2019-11-09T05:00:00Z,25.5560,-81.1690,1.5,25.78,11111222 
ENP,ioos.station.NOAA.NDBC:LMRF1:1,2019-11-09T06:00:00Z,25.5560,-81.1690,1.5,26.7,11111222 
ENP,ioos.station.NOAA.NDBC:LMRF1:1,2019-11-09T07:00:00Z,25.5560,-81.1690,1.5,27.12,11111222 
ENP,ioos.station.NOAA.NDBC:LMRF1:1,2019-11-09T08:00:00Z,25.5560,-81.1690,1.5,25.49,11111222 
ENP,ioos.station.NOAA.NDBC:LMRF1:1,2019-11-09T09:00:00Z,25.5560,-81.1690,1.5,22.48,11111222 
ENP,ioos.station.NOAA.NDBC:LMRF1:1,2019-11-09T10:00:00Z,25.5560,-81.1690,1.5,21.79,11111222 
ENP,ioos.station.NOAA.NDBC:LMRF1:1,2019-11-09T11:00:00Z,25.5560,-81.1690,1.5,21.23,11111222 
ENP,ioos.station.NOAA.NDBC:LMRF1:1,2019-11-09T12:00:00Z,25.5560,-81.1690,1.5,19.52,11111222 
ENP,ioos.station.NOAA.NDBC:LMRF1:1,2019-11-09T13:00:00Z,25.5560,-81.1690,1.5,18.29,11111222 
ENP,ioos.station.NOAA.NDBC:LMRF1:1,2019-11-09T14:00:00Z,25.5560,-81.1690,1.5,17.41,11111222 
ENP,ioos.station.NOAA.NDBC:LMRF1:1,2019-11-09T15:00:00Z,25.5560,-81.1690,1.5,17.21,11111222 
ENP,ioos.station.NOAA.NDBC:LMRF1:1,2019-11-09T16:00:00Z,25.5560,-81.1690,1.5,18.15,11111222 
ENP,ioos.station.NOAA.NDBC:LMRF1:1,2019-11-09T17:00:00Z,25.5560,-81.1690,1.5,19.24,11111222 
ENP,ioos.station.NOAA.NDBC:LMRF1:1,2019-11-09T18:00:00Z,25.5560,-81.1690,1.5,19.24,11111222 
ENP,ioos.station.NOAA.NDBC:LMRF1:1,2019-11-09T19:00:00Z,25.5560,-81.1690,1.5,18.29,11111222 
ENP,ioos.station.NOAA.NDBC:LMRF1:1,2019-11-09T20:00:00Z,25.5560,-81.1690,1.5,17.61,11111222 
ENP,ioos.station.NOAA.NDBC:LMRF1:1,2019-11-09T21:00:00Z,25.5560,-81.1690,1.5,16.8,11111222 
ENP,ioos.station.NOAA.NDBC:LMRF1:1,2019-11-09T22:00:00Z,25.5560,-81.1690,1.5,15.26,11111222 
ENP,ioos.station.NOAA.NDBC:LMRF1:1,2019-11-09T23:00:00Z,25.5560,-81.1690,1.5,14.93,11111222 
ENP,ioos.station.NOAA.NDBC:LMRF1:1,2019-11-10T00:00:00Z,25.5560,-81.1690,1.5,14.4,11111222 
ENP,ioos.station.NOAA.NDBC:LMRF1:1,2019-11-10T02:00:00Z,25.5560,-81.1690,1.5,13.61,11111222 
ENP,ioos.station.NOAA.NDBC:LMRF1:1,2019-11-10T03:00:00Z,25.5560,-81.1690,1.5,13.61,11111222 
ENP,ioos.station.NOAA.NDBC:LMRF1:1,2019-11-10T05:00:00Z,25.5560,-81.1690,1.5,16.4,11111222 
ENP,ioos.station.NOAA.NDBC:LMRF1:1,2019-11-10T07:00:00Z,25.5560,-81.1690,1.5,21.23,11111222 
ENP,ioos.station.NOAA.NDBC:LMRF1:1,2019-11-10T08:00:00Z,25.5560,-81.1690,1.5,20.61,11111222 
ENP,ioos.station.NOAA.NDBC:LMRF1:1,2019-11-10T09:00:00Z,25.5560,-81.1690,1.5,16.87,11111222 
ENP,ioos.station.NOAA.NDBC:LMRF1:1,2019-11-10T10:00:00Z,25.5560,-81.1690,1.5,15.8,11111222 
ENP,ioos.station.NOAA.NDBC:LMRF1:1,2019-11-10T11:00:00Z,25.5560,-81.1690,1.5,15.46,11111222 
ENP,ioos.station.NOAA.NDBC:LMRF1:1,2019-11-10T12:00:00Z,25.5560,-81.1690,1.5,14.93,11111222 
ENP,ioos.station.NOAA.NDBC:LMRF1:1,2019-11-10T13:00:00Z,25.5560,-81.1690,1.5,14.0,11111222 
ENP,ioos.station.NOAA.NDBC:LMRF1:1,2019-11-10T14:00:00Z,25.5560,-81.1690,1.5,13.41,11111222 
ENP,ioos.station.NOAA.NDBC:LMRF1:1,2019-11-10T15:00:00Z,25.5560,-81.1690,1.5,13.28,11111222 
ENP,ioos.station.NOAA.NDBC:LMRF1:1,2019-11-10T16:00:00Z,25.5560,-81.1690,1.5,14.4,11111222 
ENP,ioos.station.NOAA.NDBC:LMRF1:1,2019-11-10T17:00:00Z,25.5560,-81.1690,1.5,15.73,11111222 
ENP,ioos.station.NOAA.NDBC:LMRF1:1,2019-11-10T19:00:00Z,25.5560,-81.1690,1.5,22.62,11111222 
ENP,ioos.station.NOAA.NDBC:LMRF1:1,2019-11-10T20:00:00Z,25.5560,-81.1690,1.5,22.62,11111222 
ENP,ioos.station.NOAA.NDBC:LMRF1:1,2019-11-10T21:00:00Z,25.5560,-81.1690,1.5,18.9,11111222 
ENP,ioos.station.NOAA.NDBC:LMRF1:1,2019-11-10T22:00:00Z,25.5560,-81.1690,1.5,17.27,11111222 
ENP,ioos.station.NOAA.NDBC:LMRF1:1,2019-11-11T01:00:00Z,25.5560,-81.1690,1.5,14.33,11111222 
ENP,ioos.station.NOAA.NDBC:LMRF1:1,2019-11-11T08:00:00Z,25.5560,-81.1690,1.5,23.74,11111222 
ENP,ioos.station.NOAA.NDBC:LMRF1:1,2019-11-11T13:00:00Z,25.5560,-81.1690,1.5,15.26,11111222 
ENP,ioos.station.NOAA.NDBC:LMRF1:1,2019-11-11T14:00:00Z,25.5560,-81.1690,1.5,14.53,11111222 
ENP,ioos.station.NOAA.NDBC:LMRF1:1,2019-11-11T17:00:00Z,25.5560,-81.1690,1.5,16.2,11111222 
ENP,ioos.station.NOAA.NDBC:LMRF1:1,2019-11-11T18:00:00Z,25.5560,-81.1690,1.5,20.61,11111222 
ENP,ioos.station.NOAA.NDBC:LMRF1:1,2019-11-11T19:00:00Z,25.5560,-81.1690,1.5,23.88,11111222 
ENP,ioos.station.NOAA.NDBC:LMRF1:1,2019-11-11T20:00:00Z,25.5560,-81.1690,1.5,24.72,11111222 
ENP,ioos.station.NOAA.NDBC:LMRF1:1,2019-11-11T21:00:00Z,25.5560,-81.1690,1.5,24.86,11111222 
ENP,ioos.station.NOAA.NDBC:LMRF1:1,2019-11-11T22:00:00Z,25.5560,-81.1690,1.5,22.62,11111222 
ENP,ioos.station.NOAA.NDBC:LMRF1:1,2019-11-11T23:00:00Z,25.5560,-81.1690,1.5,19.93,11111222 
ENP,ioos.station.NOAA.NDBC:LMRF1:1,2019-11-12T00:00:00Z,25.5560,-81.1690,1.5,18.56,11111222 
ENP,ioos.station.NOAA.NDBC:LMRF1:1,2019-11-12T01:00:00Z,25.5560,-81.1690,1.5,17.95,11111222 
ENP,ioos.station.NOAA.NDBC:LMRF1:1,2019-11-12T02:00:00Z,25.5560,-81.1690,1.5,17.75,11111222 
ENP,ioos.station.NOAA.NDBC:LMRF1:1,2019-11-12T03:00:00Z,25.5560,-81.1690,1.5,18.29,11111222 
ENP,ioos.station.NOAA.NDBC:LMRF1:1,2019-11-12T05:00:00Z,25.5560,-81.1690,1.5,24.44,11111222 
ENP,ioos.station.NOAA.NDBC:LMRF1:1,2019-11-12T07:00:00Z,25.5560,-81.1690,1.5,26.91,11111222 
ENP,ioos.station.NOAA.NDBC:LMRF1:1,2019-11-12T08:00:00Z,25.5560,-81.1690,1.5,27.41,11111222 
ENP,ioos.station.NOAA.NDBC:LMRF1:1,2019-11-12T09:00:00Z,25.5560,-81.1690,1.5,27.77,11111222 
ENP,ioos.station.NOAA.NDBC:LMRF1:1,2019-11-12T10:00:00Z,25.5560,-81.1690,1.5,26.13,11111222 
ENP,ioos.station.NOAA.NDBC:LMRF1:1,2019-11-12T11:00:00Z,25.5560,-81.1690,1.5,24.86,11111222 
ENP,ioos.station.NOAA.NDBC:LMRF1:1,2019-11-12T12:00:00Z,25.5560,-81.1690,1.5,23.95,11111222 
ENP,ioos.station.NOAA.NDBC:LMRF1:1,2019-11-12T14:00:00Z,25.5560,-81.1690,1.5,21.03,11111222 
ENP,ioos.station.NOAA.NDBC:LMRF1:1,2019-11-12T15:00:00Z,25.5560,-81.1690,1.5,19.79,11111222 
ENP,ioos.station.NOAA.NDBC:LMRF1:1,2019-11-12T16:00:00Z,25.5560,-81.1690,1.5,19.72,11111222 
ENP,ioos.station.NOAA.NDBC:LMRF1:1,2019-11-12T17:00:00Z,25.5560,-81.1690,1.5,22.83,11111222 
ENP,ioos.station.NOAA.NDBC:LMRF1:1,2019-11-12T18:00:00Z,25.5560,-81.1690,1.5,24.93,11111222 
ENP,ioos.station.NOAA.NDBC:LMRF1:1,2019-11-12T19:00:00Z,25.5560,-81.1690,1.5,27.55,11111222 
ENP,ioos.station.NOAA.NDBC:LMRF1:1,2019-11-12T20:00:00Z,25.5560,-81.1690,1.5,27.77,11111222 
ENP,ioos.station.NOAA.NDBC:LMRF1:1,2019-11-12T21:00:00Z,25.5560,-81.1690,1.5,26.7,11111222 
ENP,ioos.station.NOAA.NDBC:LMRF1:1,2019-11-12T22:00:00Z,25.5560,-81.1690,1.5,27.91,11111222 
ENP,ioos.station.NOAA.NDBC:LMRF1:1,2019-11-12T23:00:00Z,25.5560,-81.1690,1.5,26.84,11111222 
ENP,ioos.station.NOAA.NDBC:LMRF1:1,2019-11-13T00:00:00Z,25.5560,-81.1690,1.5,26.13,11111222 
ENP,ioos.station.NOAA.NDBC:LMRF1:1,2019-11-13T01:00:00Z,25.5560,-81.1690,1.5,25.56,11111222 
ENP,ioos.station.NOAA.NDBC:LMRF1:1,2019-11-13T02:00:00Z,25.5560,-81.1690,1.5,24.79,11111222 
ENP,ioos.station.NOAA.NDBC:LMRF1:1,2019-11-13T03:00:00Z,25.5560,-81.1690,1.5,24.86,11111222 
ENP,ioos.station.NOAA.NDBC:LMRF1:1,2019-11-13T05:00:00Z,25.5560,-81.1690,1.5,27.48,11111222 
ENP,ioos.station.NOAA.NDBC:LMRF1:1,2019-11-13T07:00:00Z,25.5560,-81.1690,1.5,28.62,11111222 
ENP,ioos.station.NOAA.NDBC:LMRF1:1,2019-11-13T08:00:00Z,25.5560,-81.1690,1.5,28.98,11111222 
ENP,ioos.station.NOAA.NDBC:LMRF1:1,2019-11-13T09:00:00Z,25.5560,-81.1690,1.5,29.2,11111222 
ENP,ioos.station.NOAA.NDBC:LMRF1:1,2019-11-13T10:00:00Z,25.5560,-81.1690,1.5,29.56,11111222 
ENP,ioos.station.NOAA.NDBC:LMRF1:1,2019-11-13T11:00:00Z,25.5560,-81.1690,1.5,28.91,11111222 
ENP,ioos.station.NOAA.NDBC:LMRF1:1,2019-11-13T12:00:00Z,25.5560,-81.1690,1.5,28.55,11111222 
ENP,ioos.station.NOAA.NDBC:LMRF1:1,2019-11-13T13:00:00Z,25.5560,-81.1690,1.5,27.55,11111222 
ENP,ioos.station.NOAA.NDBC:LMRF1:1,2019-11-13T14:00:00Z,25.5560,-81.1690,1.5,26.56,11111222 
ENP,ioos.station.NOAA.NDBC:LMRF1:1,2019-11-13T15:00:00Z,25.5560,-81.1690,1.5,24.79,11111222 
ENP,ioos.station.NOAA.NDBC:LMRF1:1,2019-11-13T17:00:00Z,25.5560,-81.1690,1.5,23.25,11111222 
ENP,ioos.station.NOAA.NDBC:LMRF1:1,2019-11-13T18:00:00Z,25.5560,-81.1690,1.5,24.09,11111222 
ENP,ioos.station.NOAA.NDBC:LMRF1:1,2019-11-13T19:00:00Z,25.5560,-81.1690,1.5,26.63,11111222 
ENP,ioos.station.NOAA.NDBC:LMRF1:1,2019-11-13T20:00:00Z,25.5560,-81.1690,1.5,28.12,11111222 
ENP,ioos.station.NOAA.NDBC:LMRF1:1,2019-11-13T21:00:00Z,25.5560,-81.1690,1.5,28.55,11111222 
ENP,ioos.station.NOAA.NDBC:LMRF1:1,2019-11-13T22:00:00Z,25.5560,-81.1690,1.5,28.98,11111222 
ENP,ioos.station.NOAA.NDBC:LMRF1:1,2019-11-13T23:00:00Z,25.5560,-81.1690,1.5,26.77,11111222 
ENP,ioos.station.NOAA.NDBC:LMRF1:1,2019-11-14T00:00:00Z,25.5560,-81.1690,1.5,25.71,11111222 
ENP,ioos.station.NOAA.NDBC:LMRF1:1,2019-11-14T01:00:00Z,25.5560,-81.1690,1.5,24.79,11111222 
ENP,ioos.station.NOAA.NDBC:LMRF1:1,2019-11-14T03:00:00Z,25.5560,-81.1690,1.5,23.67,11111222 
ENP,ioos.station.NOAA.NDBC:LMRF1:1,2019-11-14T05:00:00Z,25.5560,-81.1690,1.5,23.95,11111222 
ENP,ioos.station.NOAA.NDBC:LMRF1:1,2019-11-14T07:00:00Z,25.5560,-81.1690,1.5,27.41,11111222 